AirNav   Everest Fuels
 
 1420 users online  

52A Madison Municipal Airport
Madison, Georgia, USA

GOING TO MADISON?


FAA INFORMATION EFFECTIVE 07 NOVEMBER 2019

Location

FAA Identifier: 52A
Lat/Long: 33-36-43.6500N 083-27-37.6000W
33-36.727500N 083-27.626667W
33.6121250,-83.4604444
(estimated)
Elevation: 694 ft. / 211.5 m (surveyed)
Variation: 04W (1995)
From city: 2 miles NE of MADISON, GA
Time zone: UTC -5 (UTC -4 during Daylight Saving Time)
Zip code: 30650

Airport Operations

Airport use: Open to the public
Control tower: no
ARTCC: ATLANTA CENTER
FSS: MACON FLIGHT SERVICE STATION
NOTAMs facility: MCN (NOTAM-D service available)
Attendance: MON-SAT 0900-1500, ALL SUN 0900 - 1200
Wind indicator: lighted
Segmented circle: yes
Lights: ACTVT MIRL RY 14/32 & PAPI RY 14 - CTAF.
Beacon: white-green (lighted land airport)
Operates sunset to sunrise.

Airport Communications

CTAF/UNICOM: 122.8
ATLANTA APPROACH: 132.475 ;0615-2200
ATLANTA DEPARTURE: 132.475 ;0615-2200
WX AWOS-3PT at D73 (15 nm NW): 120.825 (678-635-3668)
WX AWOS-3 at 3J7 (16 nm E): 124.525 (706-453-0017)
WX AWOS-3 at CVC (19 nm W): 118.725 (770-385-7057)
  • APCH/DEP SVC PRVDD BY ATLANTA TRACON 0615-2200 ON FREQS 132.475/291.1 OTHER TIMES BY ATLANTA ARTCC ON FREQS 127.5/316.05 (ATHENS RCAG).

Nearby radio navigation aids

VOR radial/distance  VOR name  Freq  Var
AHNr199/21.2ATHENS VOR/DME109.6000E

 
NDB name  Hdg/Dist  Freq  Var  ID
MONROE124/15.339204WJNM .--- -. --
ALCOVY097/16.137003WVOF ...- --- ..-.
BARROW COUNTY167/20.440405WBMW -... -- .--
BULLDOG214/23.622103WBJT -... .--- -
CULVR335/31.538004WUMB ..- -- -...
WASHINGTON/WILKES COUNTY256/33.843503WIIY .. .. -.--

Airport Services

Fuel available: 100LL
SELF SVC FUEL AVBL 24 HRS WITH CREDIT CARD.
Parking: tiedowns
Airframe service: MINOR
Powerplant service: MINOR
Bottled oxygen: NONE
Bulk oxygen: NONE

Runway Information

Runway 14/32

Dimensions: 3806 x 75 ft. / 1160 x 23 m
Surface: asphalt, in fair condition
Weight bearing capacity: 
Single wheel: 20.0
Runway edge lights: medium intensity
RUNWAY 14  RUNWAY 32
Latitude: 33-36.970000N33-36.484500N
Longitude: 083-27.863833W083-27.389000W
Elevation: 636.3 ft.694.0 ft.
Traffic pattern: leftright
Runway heading: 145 magnetic, 141 true325 magnetic, 321 true
Displaced threshold: no1131 ft.
Markings: nonprecision, in fair conditionnonprecision, in fair condition
Visual slope indicator: 2-light PAPI on left (3.00 degrees glide path)
Touchdown point: yes, no lightsyes, no lights
Obstructions: 33 ft. trees, 761 ft. from runway, 233 ft. left of centerline, 17:1 slope to clear15 ft. road, 201 ft. from runway
9 FT SECURITY FENCE CROSSES APPH 175 FT FM RY END, AND 15 FT ROAD CROSSES APCH 200 FT FROM RY END.

Airport Ownership and Management from official FAA records

Ownership: Publicly-owned
Owner: CITY OF MADISON
132 NORTH MAIN STREET
MADISON, GA 30650
Phone 706-342-1251
Manager: WM DAVID NUNN
132 NORTH MAIN STREET
MADISON, GA 30650
Phone 706-342-1251
ARPT PHONE 706-342-9857

Airport Operational Statistics

Aircraft based on the field: 15
Single engine airplanes: 14
Multi engine airplanes: 1
    
Aircraft operations: avg 90/week *
57% transient general aviation
43% local general aviation
* for 12-month period ending 31 December 2018

Additional Remarks

FOR CD CTC ATLANTA APCH AT 678-364-6131, WHEN APCH CLSD CTC ATLANTA ARTCC AT 770-210-7692.

Instrument Procedures

NOTE: All procedures below are presented as PDF files. If you need a reader for these files, you should download the free Adobe Reader.

NOT FOR NAVIGATION. Please procure official charts for flight.
FAA instrument procedures published for use from 07 November 2019 at 0901Z to 05 December 2019 at 0900Z.

 
IAPs - Instrument Approach Procedures
RNAV (GPS) RWY 14 **CHANGED**   download (172KB)
VOR/DME-A **CHANGED**   download (154KB)
NOTE: Special Take-Off Minimums/Departure Procedures apply   download (189KB)

Other nearby airports with instrument procedures:

D73 - Monroe-Walton County Airport (15 nm NW)
3J7 - Greene County Regional Airport (16 nm E)
KCVC - Covington Municipal Airport (19 nm W)
KAHN - Athens/Ben Epps Airport (21 nm N)
KWDR - Barrow County Airport (25 nm NW)
 
Loc | Ops | Rwys | IFR | FBO | Links
Com | Nav | Svcs | Stats | Notes
Area around 52A (Madison Municipal Airport)
 
Road maps at: MapQuest Bing Google
 
Aerial photo
WARNING: Photo may not be current or correct
Aerial photo of 52A (Madison Municipal Airport)
Do you have a better or more recent aerial photo of Madison Municipal Airport that you would like to share? If so, please send us your photo.

 
Sectional chart

 
Airport distance calculator
Flying to Madison Municipal Airport? Find the distance to fly.

From to 52A

Sunrise and sunset
Times for 14-Nov-2019
 Local
(UTC-5)
 Zulu
(UTC)
Morning civil twilight06:3911:39
Sunrise07:0612:06
Sunset17:3122:31
Evening civil twilight17:5722:57

Current date and time
Zulu (UTC)  14-Nov-2019 19:16:21
Local (UTC-5)  14-Nov-2019 14:16:21
 
METAR
KD73 
15nm NW 
141855Z AUTO 02004KT 10SM OVC017 06/00 A3029 RMK AO2 T00581002
K3J7 
16nm E 
141855Z AUTO 35003KT 10SM SCT015 BKN031 OVC039 07/02 A3028 RMK AO2
KCVC 
19nm W 
141855Z AUTO 36004KT 10SM OVC014 05/00 A3027 RMK AO2 PNO
KAHN 
21nm N 
141851Z 05004KT 10SM OVC025 07/M01 A3029 RMK AO2 SLP263 T00671011
KWDR 
25nm NW 
141855Z AUTO 00000KT 10SM BKN016 OVC023 05/M02 A3032 RMK AO2
KMLJ 
30nm S 
141855Z AUTO 06003KT 10SM OVC017 07/02 A3027 RMK AO2
TAF
KAHN 
21nm N 
141744Z 1418/1518 08007KT P6SM BKN025 FM150000 06004KT P6SM -RA BKN020 FM150400 05007KT 4SM -RA BR OVC008 TEMPO 1508/1512 2SM -RADZ BR OVC004 FM151200 03006KT 6SM BR VCSH OVC015 FM151600 01006KT P6SM BKN025
NOTAMs
Click for the latest NOTAMs
NOTAMs are issued by the DoD/FAA and will open in a separate window not controlled by AirNav.

 

 
 

FBO, Fuel Providers, and Aircraft Ground Support

  
 Business Name 
 
 Contact 
 
 Services / Description 
 
Fuel Prices
 
Comments
  
Reynolds Aviation Services 706-342-9857
706-319-6852
[web site]
[email]
Airport management, Aviation fuel, Aircraft ground handling, Aircraft parking (ramp or tiedown), Hangar leasing / sales, Passenger terminal and lounge, ...

More info about Reynolds Aviation Services
independent
100LL
SS $4.53 
 Updated 06-Nov-2019
 
   2 read write
SS=Self service
Update Fuel Prices
 

Would you like to see your business listed on this page?

 If your business provides an interesting product or service to pilots, flight crews, aircraft, or users of the Madison Municipal Airport, you should consider listing it here.  To start the listing process, click on the button below
 
Add a business
 

Other Pages about Madison Municipal Airport

www16.brinkster.com/...
 
Update a link
 
Copyright © AirNav, LLC. All rights reserved. Privacy Policy  Contact